Alturas, CA

5:42 AM PST on December 08, 2019 (GMT -0800)
Alturas Municipal

Weather History for KAAT - October, 2019

Change the Weather History Date:

Thursday, October 31, 2019

  Actual Average Record
Temperature  
Mean Temperature 34 °F 42 °F  
Max Temperature 57 °F 58 °F 81 °F (1962)
Min Temperature 11 °F 26 °F 0 °F (2002)
Degree Days  
Heating Degree Days 30 23  
Month to date heating degree days 702 566  
Since 1 July heating degree days 1008 943  
Cooling Degree Days 0 0  
Month to date cooling degree days 0 0  
Year to date cooling degree days 217 156  
Moisture  
Dew Point 2 °F    
Average Humidity 33    
Maximum Humidity 67    
Minimum Humidity 9    
Precipitation  
Precipitation 0.00 in 0.05 in 0.60 in (1956)
Month to date precipitation 0.31 1.01  
Year to date precipitation 12.54 10.67  
Sea Level Pressure  
Sea Level Pressure 30.37 in    
Wind  
Wind Speed 2 mph ()    
Max Wind Speed 9 mph    
Max Gust Speed 11 mph    
Visibility 9.5 miles    
Events      
T = Trace of Precipitation, MM = Missing Value Source: Averaged Metar Reports

Daily Weather History Graph

Daily Weather History Graph

Search for Another Location

Airport or City:

Astronomy

Oct. 31, 2019 Rise Set
Actual Time 7:32 AM PDT 5:58 PM PDT
Civil Twilight 7:03 AM PDT 6:27 PM PDT
Nautical Twilight 6:31 AM PDT 6:59 PM PDT
Astronomical Twilight 5:59 AM PDT 7:32 PM PDT
Moon 11:28 AM PDT (10/31) 8:57 PM PDT (10/31)
Length of Visible Light 11h 23m
Length of Day
10h 25m
Waxing Crescent, 16% of the Moon is Illuminated
Oct 31
Waxing Crescent
Nov 4
First Quarter
Nov 12
Full
Nov 19
Last Quarter
Nov 26
New

Hourly Weather History & Observations

Time (PDT) Temp. Windchill Dew Point Humidity Pressure Visibility Wind Dir Wind Speed Gust Speed Precip Events Conditions
12:55 AM 23.0 °F 18.4 °F -2.0 °F 34% 30.39 in 10.0 mi East 3.5 mph - N/A   Clear
1:55 AM 17.1 °F 11.7 °F -0.9 °F 45% 30.39 in 10.0 mi NE 3.5 mph - N/A   Clear
2:55 AM 19.9 °F 9.3 °F -0.0 °F 42% 30.38 in 10.0 mi NE 9.2 mph - N/A   Clear
3:55 AM 16.0 °F - -0.9 °F 47% 30.39 in 10.0 mi Calm Calm - N/A   Clear
4:55 AM 12.0 °F 5.9 °F -0.0 °F 59% 30.40 in 10.0 mi NNW 3.5 mph - N/A   Clear
5:55 AM 15.1 °F - -0.0 °F 51% 30.42 in 9.0 mi Calm Calm - N/A   Clear
6:55 AM 12.0 °F - 3.0 °F 67% 30.45 in 10.0 mi Calm Calm - N/A   Clear
7:55 AM 12.9 °F 6.9 °F 3.0 °F 65% 30.46 in 10.0 mi NW 3.5 mph - N/A   Clear
8:55 AM 21.9 °F - 5.0 °F 48% 30.44 in 10.0 mi Calm Calm - N/A   Clear
9:55 AM 32.0 °F - 5.0 °F 32% 30.43 in 10.0 mi Calm Calm - N/A   Clear
10:55 AM 39.9 °F 37.8 °F 1.9 °F 20% 30.41 in 10.0 mi SW 3.5 mph - N/A   Clear
11:55 AM 45.0 °F 43.5 °F 1.0 °F 16% 30.38 in 10.0 mi Variable 3.5 mph - N/A   Clear
12:55 PM 48.9 °F - -0.0 °F 13% 30.34 in 10.0 mi Variable 3.5 mph - N/A   Clear
1:55 PM 54.0 °F - -2.9 °F 10% 30.32 in 10.0 mi Calm Calm - N/A   Clear
2:55 PM 55.0 °F - -2.0 °F 10% 30.29 in 10.0 mi Calm Calm - N/A   Clear
3:55 PM 57.0 °F - -2.0 °F 9% 30.30 in 10.0 mi NW 3.5 mph - N/A   Clear
4:55 PM 57.0 °F - -0.9 °F 9% 30.30 in 9.0 mi SE 4.6 mph - N/A   Clear
5:55 PM 51.1 °F - -0.0 °F 12% 30.30 in 10.0 mi SE 4.6 mph - N/A   Clear
6:55 PM 46.0 °F - 1.9 °F 16% 30.33 in 9.0 mi Calm Calm - N/A   Clear
7:55 PM 36.0 °F - 3.9 °F 26% 30.38 in 7.0 mi Calm Calm - N/A   Clear
8:55 PM 32.0 °F - 8.1 °F 37% 30.37 in 10.0 mi Calm Calm - N/A   Clear
9:55 PM 27.0 °F - 5.0 °F 39% 30.37 in 10.0 mi Calm Calm - N/A   Clear
10:55 PM 26.1 °F - 5.0 °F 41% 30.36 in 7.0 mi Calm Calm - N/A   Clear
11:55 PM 25.0 °F - 6.1 °F 45% 30.36 in 8.0 mi Calm Calm - N/A   Clear